When you browse on this site, cookies collect data to enhance your experience and personalize the content and advertising you see.
Visit our Privacy Policy to learn more. By continuing to use the site, you agree to this use of cookies and data.
EN

Hourly Weather Poznan

Today, 12 July, Sunday

Time Temperature Precipitation Wind Pressure Humidity
00:00 +12°C° 0 mm 2 mps 760 mmHg 77%
01:00 +12°C° 0 mm 2 mps 760 mmHg 79%
02:00 +12°C° 0 mm 2 mps 760 mmHg 82%
03:00 +10°C° 0 mm 2 mps 760 mmHg 85%
04:00 +10°C° 0 mm 2 mps 760 mmHg 88%
05:00 +12°C° 0 mm 2 mps 760 mmHg 83%
06:00 +13°C° 0 mm 3 mps 761 mmHg 78%
07:00 +16°C° 0 mm 3 mps 761 mmHg 71%
08:00 +17°C° 0 mm 3 mps 761 mmHg 66%
09:00 +18°C° 0 mm 3 mps 761 mmHg 61%
10:00 +19°C° 0 mm 4 mps 761 mmHg 56%
11:00 +20°C° 0.1 mm 4 mps 761 mmHg 54%
12:00 +20°C° 0.1 mm 4 mps 761 mmHg 52%
13:00 +21°C° 0.1 mm 5 mps 761 mmHg 50%
14:00 +21°C° 0 mm 4 mps 761 mmHg 50%
15:00 +20°C° 0 mm 4 mps 761 mmHg 50%
16:00 +20°C° 0 mm 4 mps 761 mmHg 51%
17:00 +19°C° 0 mm 3 mps 761 mmHg 56%
18:00 +18°C° 0 mm 3 mps 761 mmHg 61%
19:00 +17°C° 0 mm 3 mps 761 mmHg 67%
20:00 +16°C° 0 mm 2 mps 761 mmHg 71%
21:00 +15°C° 0 mm 2 mps 761 mmHg 76%
22:00 +13°C° 0 mm 1 mps 761 mmHg 80%
23:00 +13°C° 0 mm 2 mps 761 mmHg 82%

Tomorrow, 13 July, Monday

Time Temperature Precipitation Wind Pressure Humidity
00:00 +12°C° 0 mm 2 mps 761 mmHg 85%
01:00 +12°C° 0 mm 2 mps 762 mmHg 87%
02:00 +12°C° 0 mm 2 mps 761 mmHg 88%
03:00 +10°C° 0 mm 2 mps 761 mmHg 89%
04:00 +10°C° 0 mm 2 mps 760 mmHg 91%
05:00 +12°C° 0 mm 2 mps 760 mmHg 87%
06:00 +13°C° 0 mm 3 mps 761 mmHg 83%
07:00 +14°C° 0 mm 3 mps 761 mmHg 79%
08:00 +17°C° 0 mm 3 mps 761 mmHg 73%
09:00 +18°C° 0 mm 4 mps 760 mmHg 67%
10:00 +19°C° 0 mm 4 mps 760 mmHg 61%
11:00 +20°C° 0.1 mm 4 mps 760 mmHg 60%
12:00 +20°C° 0.1 mm 4 mps 760 mmHg 58%
13:00 +21°C° 0.1 mm 4 mps 760 mmHg 57%
14:00 +21°C° 0.1 mm 4 mps 759 mmHg 56%
15:00 +21°C° 0.1 mm 3 mps 759 mmHg 56%
16:00 +22°C° 0.1 mm 3 mps 758 mmHg 55%
17:00 +21°C° 0 mm 3 mps 758 mmHg 59%
18:00 +20°C° 0 mm 2 mps 758 mmHg 63%
19:00 +19°C° 0 mm 2 mps 758 mmHg 67%
20:00 +18°C° 0 mm 2 mps 758 mmHg 69%
21:00 +17°C° 0 mm 2 mps 758 mmHg 71%
22:00 +15°C° 0 mm 1 mps 758 mmHg 74%
23:00 +15°C° 0 mm 1 mps 758 mmHg 78%

Day after tomorrow, 14 July, Tuesday

Time Temperature Precipitation Wind Pressure Humidity
00:00 +14°C° 0 mm 1 mps 758 mmHg 81%
01:00 +13°C° 0 mm 1 mps 758 mmHg 85%
02:00 +13°C° 0 mm 1 mps 757 mmHg 86%
03:00 +13°C° 0 mm 1 mps 757 mmHg 87%
04:00 +12°C° 0 mm 1 mps 757 mmHg 88%
05:00 +14°C° 0 mm 1 mps 757 mmHg 82%
06:00 +16°C° 0 mm 1 mps 757 mmHg 77%
07:00 +18°C° 0 mm 1 mps 757 mmHg 72%
08:00 +19°C° 0 mm 2 mps 757 mmHg 66%
09:00 +20°C° 0 mm 2 mps 756 mmHg 60%
10:00 +23°C° 0 mm 2 mps 756 mmHg 54%
11:00 +23°C° 0 mm 2 mps 756 mmHg 53%
12:00 +23°C° 0 mm 2 mps 755 mmHg 52%
13:00 +24°C° 0 mm 2 mps 755 mmHg 51%
14:00 +24°C° 0 mm 2 mps 755 mmHg 51%
15:00 +24°C° 0 mm 2 mps 754 mmHg 51%
16:00 +24°C° 0 mm 2 mps 754 mmHg 50%
17:00 +23°C° 0 mm 2 mps 754 mmHg 55%
18:00 +21°C° 0 mm 2 mps 754 mmHg 59%
19:00 +20°C° 0 mm 2 mps 753 mmHg 64%
20:00 +19°C° 0 mm 2 mps 753 mmHg 65%
21:00 +18°C° 0 mm 2 mps 753 mmHg 67%
22:00 +17°C° 0 mm 3 mps 753 mmHg 68%
23:00 +17°C° 0 mm 3 mps 753 mmHg 70%

15 July, Wednesday

Time Temperature Precipitation Wind Pressure Humidity
00:00 +17°C° 0 mm 3 mps 753 mmHg 71%
01:00 +16°C° 0 mm 3 mps 753 mmHg 73%
02:00 +16°C° 0 mm 3 mps 753 mmHg 76%
03:00 +16°C° 0 mm 3 mps 753 mmHg 78%
04:00 +16°C° 0 mm 2 mps 752 mmHg 80%
05:00 +17°C° 0 mm 2 mps 752 mmHg 78%
06:00 +17°C° 0 mm 2 mps 752 mmHg 76%
07:00 +18°C° 0 mm 2 mps 752 mmHg 74%
08:00 +20°C° 0 mm 2 mps 752 mmHg 70%
09:00 +21°C° 0 mm 2 mps 752 mmHg 66%
10:00 +23°C° 0 mm 2 mps 751 mmHg 62%
11:00 +24°C° 0.3 mm 3 mps 751 mmHg 59%
12:00 +25°C° 0.3 mm 3 mps 751 mmHg 57%
13:00 +25°C° 0.3 mm 4 mps 750 mmHg 55%
14:00 +25°C° 1 mm 4 mps 750 mmHg 58%
15:00 +23°C° 1 mm 4 mps 750 mmHg 62%
16:00 +24°C° 1 mm 3 mps 750 mmHg 65%
17:00 +22°C° 0.5 mm 3 mps 749 mmHg 70%
18:00 +21°C° 0.5 mm 2 mps 749 mmHg 74%
19:00 +20°C° 0.5 mm 2 mps 749 mmHg 79%
20:00 +19°C° 0.9 mm 2 mps 749 mmHg 84%
21:00 +17°C° 0.9 mm 3 mps 749 mmHg 89%
22:00 +16°C° 0.9 mm 3 mps 749 mmHg 95%
23:00 +15°C° 1.3 mm 4 mps 749 mmHg 95%

16 July, Thursday

Time Temperature Precipitation Wind Pressure Humidity
00:00 +15°C° 1.3 mm 4 mps 749 mmHg 95%
01:00 +14°C° 1.3 mm 4 mps 749 mmHg 95%
02:00 +14°C° 1.1 mm 4 mps 749 mmHg 94%
03:00 +13°C° 1.1 mm 5 mps 749 mmHg 94%
04:00 +13°C° 1.1 mm 5 mps 749 mmHg 93%
05:00 +13°C° 0.3 mm 5 mps 749 mmHg 92%
06:00 +13°C° 0.3 mm 5 mps 749 mmHg 91%
07:00 +13°C° 0.3 mm 5 mps 749 mmHg 89%
08:00 +14°C° 0.2 mm 6 mps 749 mmHg 87%
09:00 +14°C° 0.2 mm 6 mps 750 mmHg 85%
10:00 +15°C° 0.2 mm 6 mps 750 mmHg 83%
11:00 +14°C° 0.4 mm 6 mps 750 mmHg 85%
12:00 +14°C° 0.4 mm 6 mps 750 mmHg 86%
13:00 +13°C° 0.4 mm 6 mps 750 mmHg 88%
14:00 +13°C° 0.2 mm 6 mps 750 mmHg 88%
15:00 +13°C° 0.2 mm 5 mps 750 mmHg 88%
16:00 +13°C° 0.2 mm 5 mps 750 mmHg 88%
17:00 +13°C° 0.3 mm 4 mps 750 mmHg 89%
18:00 +13°C° 0.3 mm 3 mps 749 mmHg 91%
19:00 +13°C° 0.3 mm 3 mps 749 mmHg 92%
20:00 +14°C° 0.2 mm 2 mps 749 mmHg 93%
21:00 +14°C° 0.2 mm 2 mps 749 mmHg 94%
22:00 +14°C° 0.2 mm 2 mps 749 mmHg 95%
23:00 +14°C° 0 mm 2 mps 750 mmHg 95%

17 July, Friday

Time Temperature Precipitation Wind Pressure Humidity
00:00 +14°C° 0 mm 1 mps 750 mmHg 95%
01:00 +14°C° 0 mm 1 mps 750 mmHg 95%
02:00 +14°C° 0 mm 2 mps 750 mmHg 95%
03:00 +13°C° 0 mm 2 mps 751 mmHg 96%
04:00 +13°C° 0 mm 2 mps 751 mmHg 96%
05:00 +13°C° 0 mm 3 mps 752 mmHg 94%
06:00 +13°C° 0 mm 3 mps 752 mmHg 92%
07:00 +14°C° 0 mm 3 mps 753 mmHg 91%
08:00 +17°C° 0.1 mm 3 mps 753 mmHg 85%
09:00 +18°C° 0.1 mm 4 mps 753 mmHg 80%
10:00 +20°C° 0.1 mm 4 mps 753 mmHg 75%
11:00 +21°C° 0.3 mm 4 mps 753 mmHg 69%
12:00 +22°C° 0.3 mm 5 mps 753 mmHg 63%
13:00 +23°C° 0.3 mm 5 mps 753 mmHg 57%
14:00 +23°C° 0.5 mm 5 mps 753 mmHg 58%
15:00 +23°C° 0.5 mm 5 mps 753 mmHg 59%
16:00 +23°C° 0.5 mm 6 mps 754 mmHg 60%
17:00 +22°C° 0.1 mm 5 mps 754 mmHg 65%
18:00 +21°C° 0.1 mm 4 mps 754 mmHg 69%
19:00 +20°C° 0.1 mm 4 mps 754 mmHg 73%
20:00 +18°C° 0 mm 4 mps 754 mmHg 76%
21:00 +17°C° 0 mm 4 mps 755 mmHg 78%
22:00 +16°C° 0 mm 3 mps 755 mmHg 81%
23:00 +14°C° 0 mm 3 mps 755 mmHg 83%
Show more